User: anonymous   Login
Location: Caltech
(34.1382°N, 118.1253°W)
Time: 17:15:49
(UTC-07:00)
Language:

Cosmos 2251 Rocket - Orbit

View from above orbital plane
View from above orbital plane
View from above satellite
View from above satellite

Ground track
Ground track

The orbit data is extracted from the following two-line orbital elements,

1 22676U 93036B   17173.56866307 +.00000132 +00000-0 +56569-4 0  9995
2 22676 074.0407 172.0295 0019302 201.4720 158.5624 14.33926786256119
Epoch (UTC): 22 June 2017 13:38:52
Eccentricity: 0.0019302
inclination: 74.0407°
perigee height: 765 km
apogee height: 792 km
right ascension of ascending node: 172.0295°
argument of perigee: 201.4720°
revolutions per day: 14.33926786
mean anomaly at epoch: 158.5624°
orbit number at epoch: 25611

The dashed part of the orbit path shows where the satellite is in the earth's shadow,  

DLR